Location: Bailleul
(50.3375°N, 2.8513°E)
Time: 05:45:39
(UTC+00:00)

Meteor 2-11 Rocket - Visible Passes

Search period start: 18 October 2021 00:00
Search period end: 28 October 2021 00:00
Orbit: 940 x 956 km, 82.5° (Epoch: 17 October)

Date Brightness Start Highest point End Pass type
(mag) Time Alt. Az. Time Alt. Az. Time Alt. Az.
18 Oct 7.3 04:27:59 10° NNE 04:30:01 12° NE 04:32:04 10° ENE visible
18 Oct 6.0 18:03:48 14° ENE 18:03:48 14° ENE 18:05:51 10° NE visible
18 Oct 4.6 19:47:49 58° NNE 19:47:49 58° NNE 19:52:46 10° NNE visible
18 Oct 6.4 21:31:50 23° WNW 21:32:10 23° WNW 21:36:57 10° N visible
19 Oct 7.1 04:43:55 10° NNE 04:47:44 17° ENE 04:51:33 10° E visible
19 Oct 5.5 18:19:51 21° ENE 18:19:51 21° ENE 18:24:03 10° NE visible
19 Oct 4.5 20:03:50 76° WNW 20:03:50 76° WNW 20:09:58 10° N visible
19 Oct 6.9 21:47:48 14° WNW 21:49:47 16° WNW 21:53:30 10° NNW visible
20 Oct 6.8 05:00:30 10° N 05:05:21 24° ENE 05:10:09 10° ESE visible
20 Oct 5.1 18:34:51 27° ESE 18:36:28 31° E 18:41:45 10° NNE visible
20 Oct 5.1 20:18:37 34° SW 20:21:03 52° WNW 20:27:04 10° N visible
20 Oct 7.2 22:05:45 10° WNW 22:07:31 11° NW 22:09:17 10° NNW visible
21 Oct 6.3 05:17:20 10° N 05:22:51 33° ENE 05:28:18 10° SE visible
21 Oct 4.6 18:47:37 10° SSE 18:53:25 45° E 18:59:15 10° NNE visible
21 Oct 5.8 20:32:48 10° SW 20:38:25 36° WNW 20:44:04 10° N visible
22 Oct 7.5 03:52:59 10° NE 03:53:40 10° NE 03:54:20 10° NE visible
22 Oct 5.6 05:34:18 10° N 05:40:14 48° ENE 05:46:06 10° SSE visible
22 Oct 6.0 17:24:33 10° E 17:26:50 12° ENE 17:29:06 10° NE visible
22 Oct 4.3 19:04:23 10° S 19:10:28 67° E 19:16:35 10° NNE visible
22 Oct 6.3 20:50:53 10° WSW 20:55:53 25° WNW 21:00:56 10° N visible
23 Oct 7.2 04:08:03 10° NNE 04:11:26 15° NE 04:14:46 10° E visible
23 Oct 4.9 05:51:24 10° N 05:57:32 70° ENE 06:03:35 10° SSE visible
23 Oct 5.6 17:39:30 10° ESE 17:43:34 19° E 17:47:38 10° NE visible
23 Oct 4.4 19:21:27 10° S 19:27:37 85° W 19:33:49 10° N visible
23 Oct 6.8 21:09:23 10° W 21:13:28 18° WNW 21:17:35 10° NNW visible
24 Oct 6.9 04:24:31 10° NNE 04:29:04 21° ENE 04:33:35 10° ESE visible
24 Oct 5.2 17:55:21 10° SE 18:00:24 27° E 18:05:27 10° NNE visible
24 Oct 4.9 19:38:48 10° SSW 19:44:51 59° WNW 19:50:57 10° N visible
24 Oct 7.2 21:28:36 10° WNW 21:31:10 13° NW 21:33:45 10° NNW visible
25 Oct 6.4 04:41:17 10° N 04:46:36 30° ENE 04:51:52 10° SE visible
25 Oct 4.8 18:11:41 10° SSE 18:17:20 40° E 18:23:00 10° NNE visible
25 Oct 5.6 19:56:27 10° SW 20:02:12 40° WNW 20:07:59 10° N visible
26 Oct 5.7 04:58:12 10° N 05:04:01 43° ENE 05:09:46 10° SE visible
26 Oct 4.4 18:28:20 10° S 18:34:21 59° E 18:40:23 10° NNE visible
26 Oct 6.2 20:14:24 10° WSW 20:19:38 28° WNW 20:24:54 10° N visible
27 Oct 7.3 03:32:17 10° NNE 03:35:05 13° NE 03:37:53 10° E visible
27 Oct 5.0 05:15:15 10° N 05:21:20 62° ENE 05:27:21 10° SSE visible
27 Oct 5.8 17:03:56 10° ESE 17:07:33 16° ENE 17:11:10 10° NE visible
27 Oct 4.3 18:45:19 10° S 18:51:28 86° E 18:57:39 10° N visible
27 Oct 6.7 20:32:45 10° WSW 20:37:11 20° WNW 20:41:37 10° NNW visible
